Time,TemperatureF,DewpointF,PressureIn,WindDirection,WindDirectionDegrees,WindSpeedMPH,WindSpeedGustMPH,Humidity,HourlyPrecipIn,Conditions,Clouds,dailyrainin,SoftwareType,DateUTC
2013-03-10 00:00:00,37.5,33.0,29.95,ESE,115,4.0,-999.0,85,-99.99,,,0.00,weatherlink.com 1.10,2013-03-10 05:00:00,
2013-03-10 00:15:00,37.4,33.0,29.95,ESE,123,5.0,-999.0,85,-99.99,,,0.00,weatherlink.com 1.10,2013-03-10 05:15:00,
2013-03-10 00:30:00,37.1,33.0,29.95,SE,126,4.0,-999.0,85,-99.99,,,0.00,weatherlink.com 1.10,2013-03-10 05:30:00,
2013-03-10 00:45:00,37.3,33.0,29.94,SE,138,2.0,-999.0,85,-99.99,,,0.00,weatherlink.com 1.10,2013-03-10 05:45:00,
2013-03-10 01:00:00,37.9,34.0,29.93,SE,138,5.0,-999.0,84,-99.99,,,0.00,weatherlink.com 1.10,2013-03-10 06:00:00,
2013-03-10 01:15:00,38.6,34.0,29.93,SE,127,4.0,-999.0,83,-99.99,,,0.00,weatherlink.com 1.10,2013-03-10 06:15:00,
2013-03-10 01:30:00,39.3,34.0,29.92,SE,129,6.0,-999.0,81,-99.99,,,0.00,weatherlink.com 1.10,2013-03-10 06:30:00,
2013-03-10 01:45:00,40.2,34.0,29.92,SE,127,6.0,-999.0,79,-99.99,,,0.00,weatherlink.com 1.10,2013-03-10 06:45:00,
2013-03-10 03:00:00,40.0,34.0,29.91,SE,146,4.0,-999.0,79,-99.99,,,0.00,weatherlink.com 1.10,2013-03-10 07:00:00,
2013-03-10 03:15:00,40.8,34.0,29.91,ESE,115,8.0,-999.0,77,-99.99,,,0.00,weatherlink.com 1.10,2013-03-10 07:15:00,
2013-03-10 03:30:00,40.6,34.0,29.90,SE,133,5.0,-999.0,77,-99.99,,,0.00,weatherlink.com 1.10,2013-03-10 07:30:00,
2013-03-10 03:45:00,40.4,34.0,29.89,SE,139,4.0,-999.0,78,-99.99,,,0.00,weatherlink.com 1.10,2013-03-10 07:45:00,
2013-03-10 04:00:00,40.3,34.0,29.89,SE,143,2.0,-999.0,78,-99.99,,,0.00,weatherlink.com 1.10,2013-03-10 08:00:00,
2013-03-10 04:15:00,40.4,34.0,29.88,SE,142,4.0,-999.0,78,-99.99,,,0.00,weatherlink.com 1.10,2013-03-10 08:15:00,
2013-03-10 04:30:00,41.1,34.0,29.88,SSE,156,9.0,-999.0,77,-99.99,,,0.00,weatherlink.com 1.10,2013-03-10 08:30:00,
2013-03-10 04:45:00,42.0,34.0,29.87,SSE,161,6.0,-999.0,74,-99.99,,,0.00,weatherlink.com 1.10,2013-03-10 08:45:00,
2013-03-10 05:00:00,42.2,34.0,29.88,SSE,166,6.0,-999.0,74,-99.99,,,0.00,weatherlink.com 1.10,2013-03-10 09:00:00,
2013-03-10 05:15:00,42.8,34.0,29.88,South,173,6.0,-999.0,72,-99.99,,,0.00,weatherlink.com 1.10,2013-03-10 09:15:00,
2013-03-10 05:30:00,42.0,34.0,29.88,South,173,5.0,-999.0,74,-99.99,,,0.00,weatherlink.com 1.10,2013-03-10 09:30:00,
2013-03-10 05:45:00,41.9,34.0,29.88,SSE,165,5.0,-999.0,74,-99.99,,,0.00,weatherlink.com 1.10,2013-03-10 09:45:00,
2013-03-10 06:00:00,41.6,34.0,29.88,South,184,6.0,-999.0,75,-99.99,,,0.00,weatherlink.com 1.10,2013-03-10 10:00:00,
2013-03-10 06:15:00,41.6,35.0,29.87,South,191,3.0,-999.0,76,-99.99,,,0.00,weatherlink.com 1.10,2013-03-10 10:15:00,
2013-03-10 06:30:00,42.3,35.0,29.88,SSW,201,7.0,-999.0,76,-99.99,,,0.00,weatherlink.com 1.10,2013-03-10 10:30:00,
2013-03-10 06:45:00,41.8,36.0,29.87,SSW,192,3.0,-999.0,79,-99.99,,,0.01,weatherlink.com 1.10,2013-03-10 10:45:00,
2013-03-10 07:00:00,41.0,36.0,29.87,SSW,192,4.0,-999.0,82,-99.99,,,0.03,weatherlink.com 1.10,2013-03-10 11:00:00,
2013-03-10 07:15:00,40.6,36.0,29.87,South,169,5.0,-999.0,84,-99.99,,,0.06,weatherlink.com 1.10,2013-03-10 11:15:00,
2013-03-10 07:30:00,40.0,37.0,29.87,South,169,4.0,-999.0,87,-99.99,,,0.09,weatherlink.com 1.10,2013-03-10 11:30:00,
2013-03-10 07:45:00,40.0,37.0,29.88,South,175,5.0,-999.0,89,-99.99,,,0.10,weatherlink.com 1.10,2013-03-10 11:45:00,
2013-03-10 08:00:00,39.9,37.0,29.88,SSE,167,7.0,-999.0,90,-99.99,,,0.10,weatherlink.com 1.10,2013-03-10 12:00:00,
2013-03-10 08:15:00,39.9,38.0,29.88,South,172,6.0,-999.0,91,-99.99,,,0.12,weatherlink.com 1.10,2013-03-10 12:15:00,
2013-03-10 08:30:00,39.7,37.0,29.87,South,181,5.0,-999.0,91,-99.99,,,0.12,weatherlink.com 1.10,2013-03-10 12:30:00,
2013-03-10 08:45:00,39.6,38.0,29.87,South,178,5.0,-999.0,93,-99.99,,,0.12,weatherlink.com 1.10,2013-03-10 12:45:00,
2013-03-10 09:00:00,39.6,38.0,29.86,South,176,0.0,-999.0,94,-99.99,,,0.13,weatherlink.com 1.10,2013-03-10 13:00:00,
2013-03-10 09:15:00,39.9,38.0,29.86,South,176,4.0,-999.0,94,-99.99,,,0.13,weatherlink.com 1.10,2013-03-10 13:15:00,
2013-03-10 09:30:00,40.3,39.0,29.86,South,178,2.0,-999.0,95,-99.99,,,0.14,weatherlink.com 1.10,2013-03-10 13:30:00,
2013-03-10 09:45:00,40.7,39.0,29.86,South,181,3.0,-999.0,95,-99.99,,,0.14,weatherlink.com 1.10,2013-03-10 13:45:00,
2013-03-10 10:00:00,40.8,40.0,29.86,South,181,4.0,-999.0,95,-99.99,,,0.14,weatherlink.com 1.10,2013-03-10 14:00:00,
2013-03-10 10:15:00,41.2,40.0,29.86,South,181,3.0,-999.0,96,-99.99,,,0.14,weatherlink.com 1.10,2013-03-10 14:15:00,
2013-03-10 10:30:00,41.6,41.0,29.84,South,180,2.0,-999.0,96,-99.99,,,0.14,weatherlink.com 1.10,2013-03-10 14:30:00,
2013-03-10 10:45:00,41.8,41.0,29.85,South,180,3.0,-999.0,96,-99.99,,,0.14,weatherlink.com 1.10,2013-03-10 14:45:00,
2013-03-10 11:00:00,41.6,41.0,29.84,South,180,0.0,-999.0,96,-99.99,,,0.14,weatherlink.com 1.10,2013-03-10 15:00:00,
2013-03-10 11:15:00,41.4,40.0,29.85,South,180,0.0,-999.0,96,-99.99,,,0.14,weatherlink.com 1.10,2013-03-10 15:15:00,
2013-03-10 11:30:00,41.3,40.0,29.85,South,180,3.0,-999.0,96,-99.99,,,0.14,weatherlink.com 1.10,2013-03-10 15:30:00,
2013-03-10 11:45:00,41.7,40.0,29.85,South,180,3.0,-999.0,95,-99.99,,,0.15,weatherlink.com 1.10,2013-03-10 15:45:00,
2013-03-10 12:00:00,42.3,41.0,29.85,South,180,1.0,-999.0,95,-99.99,,,0.16,weatherlink.com 1.10,2013-03-10 16:00:00,
2013-03-10 12:15:00,42.5,41.0,29.85,South,180,2.0,-999.0,95,-99.99,,,0.16,weatherlink.com 1.10,2013-03-10 16:15:00,
2013-03-10 12:30:00,43.1,42.0,29.85,South,180,3.0,-999.0,94,-99.99,,,0.16,weatherlink.com 1.10,2013-03-10 16:30:00,
2013-03-10 12:45:00,42.8,41.0,29.86,South,180,0.0,-999.0,92,-99.99,,,0.16,weatherlink.com 1.10,2013-03-10 16:45:00,
2013-03-10 13:00:00,42.5,41.0,29.86,South,180,0.0,-999.0,93,-99.99,,,0.16,weatherlink.com 1.10,2013-03-10 17:00:00,
2013-03-10 13:15:00,43.0,41.0,29.86,South,180,0.0,-999.0,93,-99.99,,,0.16,weatherlink.com 1.10,2013-03-10 17:15:00,
2013-03-10 13:30:00,43.2,41.0,29.86,South,180,0.0,-999.0,92,-99.99,,,0.16,weatherlink.com 1.10,2013-03-10 17:30:00,
2013-03-10 13:45:00,44.1,42.0,29.85,South,180,0.0,-999.0,92,-99.99,,,0.16,weatherlink.com 1.10,2013-03-10 17:45:00,
2013-03-10 14:00:00,45.1,42.0,29.84,South,180,0.0,-999.0,89,-99.99,,,0.16,weatherlink.com 1.10,2013-03-10 18:00:00,
2013-03-10 14:15:00,45.8,43.0,29.84,South,180,0.0,-999.0,89,-99.99,,,0.16,weatherlink.com 1.10,2013-03-10 18:15:00,
2013-03-10 14:30:00,45.1,42.0,29.84,South,180,0.0,-999.0,88,-99.99,,,0.16,weatherlink.com 1.10,2013-03-10 18:30:00,
2013-03-10 14:45:00,46.0,43.0,29.85,South,180,2.0,-999.0,88,-99.99,,,0.16,weatherlink.com 1.10,2013-03-10 18:45:00,
2013-03-10 15:00:00,45.7,42.0,29.85,South,180,3.0,-999.0,88,-99.99,,,0.16,weatherlink.com 1.10,2013-03-10 19:00:00,
2013-03-10 15:15:00,44.4,41.0,29.86,South,180,2.0,-999.0,89,-99.99,,,0.20,weatherlink.com 1.10,2013-03-10 19:15:00,
2013-03-10 15:30:00,43.7,42.0,29.84,South,180,0.0,-999.0,92,-99.99,,,0.21,weatherlink.com 1.10,2013-03-10 19:30:00,
2013-03-10 15:45:00,43.8,42.0,29.83,South,180,0.0,-999.0,93,-99.99,,,0.22,weatherlink.com 1.10,2013-03-10 19:45:00,
2013-03-10 16:00:00,41.9,40.0,29.84,South,180,0.0,-999.0,93,-99.99,,,0.22,weatherlink.com 1.10,2013-03-10 20:00:00,
2013-03-10 16:15:00,42.7,41.0,29.81,SE,144,5.0,-999.0,95,-99.99,,,0.22,weatherlink.com 1.10,2013-03-10 20:15:00,
2013-03-10 16:30:00,44.0,43.0,29.79,NE,34,3.0,-999.0,96,-99.99,,,0.22,weatherlink.com 1.10,2013-03-10 20:30:00,
2013-03-10 16:45:00,43.8,43.0,29.81,NE,45,2.0,-999.0,95,-99.99,,,0.22,weatherlink.com 1.10,2013-03-10 20:45:00,
2013-03-10 17:00:00,42.6,41.0,29.81,NE,45,3.0,-999.0,95,-99.99,,,0.22,weatherlink.com 1.10,2013-03-10 21:00:00,
2013-03-10 17:15:00,42.2,41.0,29.80,NE,45,3.0,-999.0,96,-99.99,,,0.22,weatherlink.com 1.10,2013-03-10 21:15:00,
2013-03-10 17:30:00,43.3,42.0,29.80,NE,45,2.0,-999.0,96,-99.99,,,0.22,weatherlink.com 1.10,2013-03-10 21:30:00,
2013-03-10 17:45:00,41.8,41.0,29.82,NE,45,3.0,-999.0,96,-99.99,,,0.22,weatherlink.com 1.10,2013-03-10 21:45:00,
2013-03-10 18:00:00,42.5,42.0,29.80,ENE,67,5.0,-999.0,96,-99.99,,,0.22,weatherlink.com 1.10,2013-03-10 22:00:00,
2013-03-10 18:15:00,43.3,43.0,29.79,ENE,65,6.0,-999.0,97,-99.99,,,0.22,weatherlink.com 1.10,2013-03-10 22:15:00,
2013-03-10 18:30:00,43.1,42.0,29.77,ENE,60,6.0,-999.0,96,-99.99,,,0.22,weatherlink.com 1.10,2013-03-10 22:30:00,
2013-03-10 18:45:00,42.6,42.0,29.76,ENE,71,7.0,-999.0,96,-99.99,,,0.22,weatherlink.com 1.10,2013-03-10 22:45:00,
2013-03-10 19:00:00,41.6,41.0,29.77,ENE,78,4.0,-999.0,96,-99.99,,,0.22,weatherlink.com 1.10,2013-03-10 23:00:00,
2013-03-10 19:15:00,41.6,41.0,29.73,East,82,11.0,-999.0,96,-99.99,,,0.23,weatherlink.com 1.10,2013-03-10 23:15:00,
2013-03-10 19:30:00,41.6,41.0,29.77,East,97,0.0,-999.0,96,-99.99,,,0.23,weatherlink.com 1.10,2013-03-10 23:30:00,
2013-03-10 19:45:00,40.9,40.0,29.77,East,90,5.0,-999.0,95,-99.99,,,0.23,weatherlink.com 1.10,2013-03-10 23:45:00,
2013-03-10 20:00:00,42.7,42.0,29.76,NE,35,6.0,-999.0,96,-99.99,,,0.23,weatherlink.com 1.10,2013-03-11 00:00:00,
2013-03-10 20:15:00,42.2,41.0,29.76,NE,49,2.0,-999.0,94,-99.99,,,0.23,weatherlink.com 1.10,2013-03-11 00:15:00,
2013-03-10 20:30:00,41.4,40.0,29.77,NE,49,2.0,-999.0,95,-99.99,,,0.25,weatherlink.com 1.10,2013-03-11 00:30:00,
2013-03-10 20:45:00,42.2,41.0,29.76,NE,49,4.0,-999.0,96,-99.99,,,0.26,weatherlink.com 1.10,2013-03-11 00:45:00,
2013-03-10 21:00:00,41.4,40.0,29.76,NE,49,2.0,-999.0,95,-99.99,,,0.27,weatherlink.com 1.10,2013-03-11 01:00:00,
2013-03-10 21:15:00,40.4,39.0,29.76,NE,49,4.0,-999.0,95,-99.99,,,0.29,weatherlink.com 1.10,2013-03-11 01:15:00,
2013-03-10 21:30:00,41.1,40.0,29.73,East,90,7.0,-999.0,96,-99.99,,,0.30,weatherlink.com 1.10,2013-03-11 01:30:00,
2013-03-10 21:45:00,42.0,41.0,29.73,East,97,6.0,-999.0,96,-99.99,,,0.30,weatherlink.com 1.10,2013-03-11 01:45:00,
2013-03-10 22:00:00,43.1,42.0,29.73,ESE,102,6.0,-999.0,96,-99.99,,,0.30,weatherlink.com 1.10,2013-03-11 02:00:00,
2013-03-10 22:15:00,43.6,42.0,29.73,ESE,111,6.0,-999.0,94,-99.99,,,0.30,weatherlink.com 1.10,2013-03-11 02:15:00,
2013-03-10 22:30:00,44.3,42.0,29.72,ESE,115,8.0,-999.0,93,-99.99,,,0.30,weatherlink.com 1.10,2013-03-11 02:30:00,
2013-03-10 22:45:00,45.0,43.0,29.71,ESE,115,6.0,-999.0,91,-99.99,,,0.30,weatherlink.com 1.10,2013-03-11 02:45:00,
2013-03-10 23:00:00,44.7,42.0,29.70,ESE,113,7.0,-999.0,91,-99.99,,,0.30,weatherlink.com 1.10,2013-03-11 03:00:00,
2013-03-10 23:15:00,44.8,42.0,29.69,ESE,119,7.0,-999.0,91,-99.99,,,0.30,weatherlink.com 1.10,2013-03-11 03:15:00,
2013-03-10 23:30:00,44.9,43.0,29.68,ESE,119,6.0,-999.0,91,-99.99,,,0.30,weatherlink.com 1.10,2013-03-11 03:30:00,
2013-03-10 23:45:00,44.6,42.0,29.69,SE,128,4.0,-999.0,91,-99.99,,,0.30,weatherlink.com 1.10,2013-03-11 03:45:00,